User: anonymous   Login
Location: Unspecified
(0.0000°N, 0.0000°E)
Time: 15:42:03
(UTC+00:00)
Language:

OBJECT C - Orbit

View from above orbital plane
View from above orbital plane
View from above satellite
View from above satellite

Ground track
Ground track

The orbit data is extracted from the following two-line orbital elements,

1 60237U 24128C   24285.87761530  .00018678  00000-0  15564-2 0  9996
2 60237  61.9935 196.3499 0020509 350.5306   9.5393 14.98565234 14070
Epoch (UTC): 11 October 2024 21:03:45
Eccentricity: 0.0020509
inclination: 61.9935°
perigee height: 557 km
apogee height: 585 km
right ascension of ascending node: 196.3499°
argument of perigee: 350.5306°
revolutions per day: 14.98565234
mean anomaly at epoch: 9.5393°
orbit number at epoch: 1407

The dashed part of the orbit path shows where the satellite is in the earth's shadow,  

DLR